�������l�o���
Date,Time,MP-1(��Sv/h),MP-2(��Sv/h),MP-3(��Sv/h),MP-4(��Sv/h),MP-5(��Sv/h),MP-6(��Sv/h),MP-7(��Sv/h),����,����(m/s),���J
2017/12/04,00:00,0.335,0.212,0.349,0.326,0.313,0.172,0.102,�쐼,2.5,��
2017/12/04,00:10,0.336,0.212,0.348,0.328,0.311,0.172,0.103,���쐼,4.1,��
2017/12/04,00:20,0.336,0.213,0.349,0.329,0.311,0.172,0.103,��,4.3,��
2017/12/04,00:30,0.338,0.211,0.348,0.328,0.311,0.172,0.102,��,4.1,��
2017/12/04,00:40,0.336,0.211,0.349,0.327,0.310,0.172,0.102,���k��,4.8,��
2017/12/04,00:50,0.335,0.212,0.348,0.328,0.311,0.172,0.101,�k��,7.0,��
2017/12/04,01:00,0.338,0.212,0.347,0.328,0.310,0.171,0.103,�k��,7.3,��
2017/12/04,01:10,0.336,0.212,0.349,0.327,0.312,0.173,0.103,�k�k��,8.7,��
2017/12/04,01:20,0.337,0.212,0.348,0.328,0.311,0.172,0.103,�k�k��,8.4,��
2017/12/04,01:30,0.336,0.213,0.347,0.328,0.311,0.171,0.102,�k�k��,7.7,��
2017/12/04,01:40,0.336,0.212,0.350,0.329,0.312,0.171,0.102,�k�k��,7.9,��
2017/12/04,01:50,0.336,0.212,0.348,0.328,0.312,0.173,0.102,�k�k��,7.6,��
2017/12/04,02:00,0.336,0.212,0.348,0.327,0.312,0.172,0.103,�k�k��,5.7,��
2017/12/04,02:10,0.335,0.213,0.348,0.328,0.312,0.172,0.102,�k�k��,4.8,��
2017/12/04,02:20,0.337,0.213,0.349,0.330,0.313,0.172,0.103,�k�k��,2.6,��
2017/12/04,02:30,0.336,0.212,0.349,0.328,0.310,0.172,0.102,-,CALM,��
2017/12/04,02:40,0.336,0.212,0.349,0.327,0.311,0.173,0.103,��쓌,1.0,��
2017/12/04,02:50,0.335,0.212,0.347,0.328,0.313,0.171,0.103,��,1.9,��
2017/12/04,03:00,0.335,0.212,0.349,0.329,0.311,0.172,0.103,��,1.9,��
2017/12/04,03:10,0.336,0.211,0.349,0.329,0.312,0.172,0.102,�쐼,1.9,��
2017/12/04,03:20,0.336,0.212,0.349,0.328,0.311,0.171,0.102,���쐼,3.2,��
2017/12/04,03:30,0.336,0.212,0.348,0.329,0.313,0.171,0.102,���쐼,2.9,��
2017/12/04,03:40,0.336,0.212,0.349,0.328,0.311,0.172,0.102,���쐼,3.2,��
2017/12/04,03:50,0.337,0.212,0.349,0.327,0.312,0.172,0.102,���쐼,3.3,��
2017/12/04,04:00,0.337,0.212,0.349,0.328,0.311,0.172,0.102,��,3.1,��
2017/12/04,04:10,0.336,0.213,0.349,0.328,0.311,0.171,0.102,��,2.5,��
2017/12/04,04:20,0.335,0.212,0.350,0.330,0.312,0.172,0.103,���쐼,1.6,��
2017/12/04,04:30,0.337,0.211,0.349,0.329,0.310,0.172,0.102,��,1.4,��
2017/12/04,04:40,0.335,0.211,0.348,0.328,0.311,0.172,0.102,-,CALM,��
2017/12/04,04:50,0.337,0.212,0.348,0.328,0.309,0.172,0.102,�쐼,1.0,��
2017/12/04,05:00,0.335,0.213,0.349,0.326,0.312,0.172,0.103,�k,1.2,��
2017/12/04,05:10,0.335,0.212,0.349,0.329,0.310,0.171,0.103,�k��,1.4,��
2017/12/04,05:20,0.336,0.212,0.349,0.328,0.311,0.171,0.101,�k�k��,2.3,��
2017/12/04,05:30,0.336,0.212,0.348,0.329,0.310,0.172,0.102,�k��,2.0,��
2017/12/04,05:40,0.336,0.212,0.348,0.326,0.311,0.171,0.103,�k�k��,1.7,��
2017/12/04,05:50,0.335,0.212,0.347,0.328,0.310,0.172,0.102,�k�k��,0.9,��
2017/12/04,06:00,0.336,0.213,0.348,0.329,0.309,0.172,0.102,�k��,0.8,��
2017/12/04,06:10,0.335,0.211,0.348,0.327,0.310,0.171,0.102,�k��,2.1,��
2017/12/04,06:20,0.336,0.212,0.347,0.328,0.312,0.172,0.103,���k��,0.7,��
2017/12/04,06:30,0.336,0.213,0.349,0.328,0.311,0.171,0.102,�k��,0.8,��
2017/12/04,06:40,0.337,0.212,0.349,0.328,0.310,0.172,0.101,�k�k��,0.8,��
2017/12/04,06:50,0.337,0.211,0.349,0.329,0.311,0.172,0.102,-,CALM,��
2017/12/04,07:00,0.335,0.211,0.347,0.327,0.311,0.172,0.103,-,CALM,��
2017/12/04,07:10,0.335,0.213,0.347,0.327,0.310,0.172,0.102,-,CALM,��
2017/12/04,07:20,0.335,0.212,0.349,0.328,0.311,0.172,0.102,-,CALM,��
2017/12/04,07:30,0.337,0.211,0.349,0.327,0.311,0.172,0.102,�k��,1.3,��
2017/12/04,07:40,0.336,0.211,0.348,0.326,0.310,0.171,0.102,�k��,0.7,��
2017/12/04,07:50,0.335,0.213,0.347,0.325,0.310,0.172,0.102,���k��,1.2,��
2017/12/04,08:00,0.336,0.213,0.348,0.327,0.311,0.171,0.102,���k��,1.2,��
2017/12/04,08:10,0.337,0.212,0.348,0.327,0.311,0.172,0.102,�k��,1.2,��
2017/12/04,08:20,0.335,0.212,0.348,0.326,0.312,0.172,0.102,�k��,2.5,��
2017/12/04,08:30,0.334,0.212,0.348,0.328,0.311,0.171,0.102,�k�k��,2.6,��
2017/12/04,08:40,0.335,0.211,0.348,0.328,0.310,0.172,0.102,�k�k��,3.0,��
2017/12/04,08:50,0.337,0.212,0.349,0.327,0.310,0.172,0.103,�k,4.0,��
2017/12/04,09:00,0.335,0.213,0.347,0.327,0.310,0.172,0.103,�k��,3.4,��
2017/12/04,09:10,0.336,0.212,0.348,0.327,0.311,0.172,0.102,�k��,3.5,��
2017/12/04,09:20,0.336,0.210,0.349,0.327,0.311,0.171,0.102,���k��,3.7,��
2017/12/04,09:30,0.336,0.211,0.348,0.326,0.311,0.171,0.102,���k��,4.2,��
2017/12/04,09:40,0.335,0.210,0.347,0.325,0.310,0.172,0.102,���k��,3.4,��
2017/12/04,09:50,0.336,0.211,0.348,0.326,0.313,0.171,0.102,���k��,3.0,��
2017/12/04,10:00,0.335,0.212,0.347,0.326,0.310,0.171,0.102,�k��,3.0,��
2017/12/04,10:10,0.335,0.211,0.347,0.326,0.312,0.171,0.102,���k��,2.6,��
2017/12/04,10:20,0.333,0.211,0.347,0.326,0.310,0.173,0.102,�k��,2.6,��
2017/12/04,10:30,0.335,0.211,0.346,0.326,0.313,0.172,0.102,�k�k��,2.1,��
2017/12/04,10:40,0.331,0.211,0.348,0.328,0.309,0.171,0.102,�k�k��,2.3,��
2017/12/04,10:50,0.334,0.210,0.347,0.326,0.311,0.173,0.102,�k��,2.1,��
2017/12/04,11:00,0.333,0.211,0.346,0.327,0.311,0.171,0.103,�k��,2.7,��
2017/12/04,11:10,0.336,0.211,0.349,0.326,0.312,0.172,0.102,�k�k��,3.2,��
2017/12/04,11:20,0.335,0.211,0.345,0.328,0.312,0.173,0.102,�k��,2.8,��
2017/12/04,11:30,0.337,0.212,0.347,0.326,0.310,0.171,0.102,�k�k��,2.7,��
2017/12/04,11:40,0.333,0.211,0.347,0.328,0.313,0.171,0.102,�k�k��,1.8,��
2017/12/04,11:50,0.337,0.212,0.348,0.326,0.311,0.172,0.102,�k�k��,2.4,��
2017/12/04,12:00,0.335,0.212,0.347,0.328,0.313,0.173,0.102,�k,2.3,��
2017/12/04,12:10,0.336,0.212,0.347,0.328,0.313,0.171,0.102,�k,2.1,��
2017/12/04,12:20,0.334,0.210,0.349,0.329,0.313,0.171,0.103,�k,2.7,��
2017/12/04,12:30,0.337,0.211,0.346,0.327,0.311,0.173,0.102,�k�k��,1.4,��
2017/12/04,12:40,0.336,0.214,0.348,0.328,0.313,0.172,0.102,�k,1.5,��
2017/12/04,12:50,0.336,0.212,0.348,0.327,0.312,0.173,0.101,�k�k��,1.3,��
2017/12/04,13:00,0.337,0.213,0.349,0.328,0.312,0.172,0.102,�k,1.7,��
2017/12/04,13:10,0.335,0.211,0.347,0.330,0.313,0.173,0.102,�k,2.0,��
2017/12/04,13:20,0.337,0.211,0.347,0.328,0.312,0.172,0.102,�k,3.2,��
2017/12/04,13:30,0.334,0.212,0.350,0.327,0.313,0.171,0.102,�k,0.8,��
2017/12/04,13:40,0.336,0.212,0.347,0.327,0.310,0.172,0.102,�k��,2.7,��
2017/12/04,13:50,0.335,0.211,0.347,0.327,0.312,0.172,0.101,�k��,2.3,��
2017/12/04,14:00,0.335,0.213,0.348,0.329,0.313,0.172,0.102,�k�k��,1.4,��
2017/12/04,14:10,0.338,0.212,0.347,0.327,0.312,0.172,0.102,�k,2.1,�L
2017/12/04,14:20,0.336,0.213,0.349,0.330,0.315,0.174,0.104,�k,3.3,��
2017/12/04,14:30,0.338,0.212,0.348,0.328,0.314,0.173,0.103,�k�k��,2.7,�L
2017/12/04,14:40,0.336,0.212,0.348,0.329,0.314,0.173,0.103,�k�k��,2.9,�L
2017/12/04,14:50,0.336,0.213,0.351,0.331,0.315,0.173,0.103,�k�k��,2.9,�L
2017/12/04,15:00,0.338,0.214,0.349,0.329,0.313,0.174,0.103,�k�k��,3.5,�L
2017/12/04,15:10,0.337,0.213,0.348,0.329,0.314,0.175,0.104,�k�k��,2.7,�L
2017/12/04,15:20,0.337,0.214,0.351,0.332,0.314,0.176,0.106,�k�k��,2.2,�L
2017/12/04,15:30,0.338,0.214,0.350,0.330,0.314,0.176,0.106,�k�k��,2.3,�L
2017/12/04,15:40,0.337,0.215,0.350,0.330,0.313,0.175,0.106,�k�k��,3.2,�L
2017/12/04,15:50,0.336,0.214,0.352,0.330,0.314,0.175,0.105,�k�k��,3.2,�L
2017/12/04,16:00,0.339,0.213,0.349,0.331,0.313,0.175,0.105,�k,3.4,��
2017/12/04,16:10,0.336,0.215,0.351,0.330,0.314,0.175,0.104,�k�k��,2.6,��
2017/12/04,16:20,0.336,0.213,0.350,0.329,0.313,0.174,0.104,�k�k��,3.1,�L
2017/12/04,16:30,0.338,0.213,0.348,0.326,0.312,0.175,0.104,�k�k��,2.3,��
2017/12/04,16:40,0.334,0.213,0.350,0.329,0.313,0.174,0.103,�k�k��,4.6,��
2017/12/04,16:50,0.336,0.213,0.349,0.329,0.311,0.173,0.103,�k�k��,5.4,�L
2017/12/04,17:00,0.337,0.212,0.349,0.328,0.313,0.173,0.104,�k�k��,4.9,�L
2017/12/04,17:10,0.337,0.216,0.350,0.329,0.313,0.175,0.105,�k�k��,5.6,�L
2017/12/04,17:20,0.338,0.215,0.350,0.331,0.312,0.174,0.106,�k�k��,6.8,�L
2017/12/04,17:30,0.340,0.216,0.352,0.330,0.314,0.175,0.106,�k�k��,6.0,�L
2017/12/04,17:40,0.340,0.215,0.351,0.331,0.315,0.176,0.106,�k��,5.5,�L
2017/12/04,17:50,0.339,0.216,0.353,0.331,0.313,0.178,0.107,�k��,5.9,�L
2017/12/04,18:00,0.339,0.219,0.351,0.332,0.316,0.180,0.110,���k��,7.0,�L
2017/12/04,18:10,0.340,0.221,0.353,0.332,0.315,0.182,0.112,�k�k��,4.1,�L
2017/12/04,18:20,0.342,0.222,0.353,0.334,0.318,0.184,0.112,-,CALM,�L
2017/12/04,18:30,0.344,0.221,0.353,0.333,0.319,0.184,0.113,-,CALM,�L
2017/12/04,18:40,0.342,0.222,0.352,0.334,0.318,0.184,0.113,-,CALM,�L
2017/12/04,18:50,0.344,0.223,0.352,0.336,0.320,0.184,0.115,-,CALM,�L
2017/12/04,19:00,0.345,0.224,0.352,0.334,0.320,0.184,0.115,�k�k��,3.6,�L
2017/12/04,19:10,0.343,0.223,0.352,0.334,0.319,0.186,0.115,-,CALM,�L
2017/12/04,19:20,0.345,0.223,0.352,0.334,0.319,0.184,0.114,-,CALM,�L
2017/12/04,19:30,0.343,0.221,0.351,0.332,0.319,0.182,0.114,-,CALM,�L
2017/12/04,19:40,0.340,0.221,0.349,0.330,0.318,0.182,0.113,-,CALM,�L
2017/12/04,19:50,0.339,0.222,0.349,0.332,0.317,0.181,0.112,-,CALM,�L
2017/12/04,20:00,0.340,0.220,0.348,0.329,0.316,0.178,0.111,-,CALM,�L
2017/12/04,20:10,0.338,0.218,0.346,0.328,0.314,0.179,0.110,-,CALM,�L
2017/12/04,20:20,0.338,0.218,0.346,0.329,0.315,0.179,0.110,-,CALM,�L
2017/12/04,20:30,0.339,0.216,0.346,0.327,0.315,0.178,0.109,-,CALM,�L
2017/12/04,20:40,0.336,0.217,0.345,0.327,0.314,0.177,0.108,-,CALM,�L
2017/12/04,20:50,0.336,0.217,0.344,0.327,0.314,0.177,0.109,-,CALM,�L
2017/12/04,21:00,0.337,0.216,0.346,0.327,0.315,0.177,0.109,-,CALM,�L
2017/12/04,21:10,0.334,0.215,0.342,0.323,0.312,0.176,0.109,-,CALM,�L
2017/12/04,21:20,0.334,0.216,0.342,0.325,0.313,0.176,0.110,-,CALM,�L
2017/12/04,21:30,0.335,0.216,0.343,0.326,0.312,0.176,0.108,-,CALM,�L
2017/12/04,21:40,0.333,0.215,0.342,0.323,0.311,0.175,0.109,-,CALM,�L
2017/12/04,21:50,0.333,0.216,0.342,0.323,0.310,0.174,0.109,-,CALM,�L
2017/12/04,22:00,0.334,0.215,0.344,0.323,0.312,0.175,0.108,-,CALM,�L
2017/12/04,22:10,0.333,0.213,0.341,0.323,0.311,0.174,0.108,-,CALM,�L
2017/12/04,22:20,0.332,0.212,0.340,0.321,0.311,0.173,0.107,�k,2.4,�L
2017/12/04,22:30,0.332,0.214,0.341,0.323,0.312,0.172,0.107,�k�k��,2.6,��
2017/12/04,22:40,0.331,0.211,0.342,0.321,0.310,0.171,0.106,�k,2.8,�L
2017/12/04,22:50,0.331,0.212,0.340,0.320,0.309,0.171,0.105,�k,1.7,�L
2017/12/04,23:00,0.330,0.210,0.340,0.320,0.309,0.170,0.105,�k�k��,1.7,�L
2017/12/04,23:10,0.330,0.211,0.339,0.321,0.310,0.170,0.105,�k�k��,1.3,�L
2017/12/04,23:20,0.329,0.211,0.339,0.319,0.309,0.169,0.103,�k�k��,1.8,��
2017/12/04,23:30,0.330,0.210,0.338,0.319,0.308,0.170,0.104,�k�k��,1.7,��
2017/12/04,23:40,0.329,0.209,0.339,0.319,0.309,0.168,0.103,�k��,1.5,��
2017/12/04,23:50,0.328,0.207,0.338,0.319,0.308,0.169,0.102,�k��,0.7,��
